sat.trackr.live / text

‹ back to catalog

2025-292H

NORAD 67000 · 2025-292H

PAYLOAD ACTIVE UNKNOWN

§ Identity

Operator
Country
PRC
Launch date
2025-12-10
Launch site
JSC
Launch vehicle
Mass (kg)
RCS (m²)

External: N2YO · Heavens-Above · Gunter

§ Orbital elements

Epoch: 2026-05-25T03:58:46.995744Z

Period
95.54 min
Inclination
97.6377°
Eccentricity
0.0016176
Mean motion
15.07297702 rev/d
Perigee alt
533.3 km
Apogee alt
555.7 km
Semi-major
6,922.6 km
B*
4.3588e-4
RAAN
221.4402°
Arg perigee
85.4294°
Mean anomaly
274.8780°
Rev number
2,486

§ Raw data

2025-292H1 67000U 25292H   26145.16582171  .00006537  00000+0  43588-3 0  99932 67000  97.6377 221.4402 0016176  85.4294 274.8780 15.07297702 24868

JSON: /api/v1/satellites/67000 · /tle

For live sub-satellite position, see the globe view (requires WebGL).

§ Visibility from observer

Set your observer location to see the next 7 days of passes ≥ 10°. The values pass through the URL so the page stays shareable.

No JS? Fill the form by hand. The geolocation button needs JavaScript.